| time (UTC) | temp F | wind direction | speed knots | gust knots | rain 1hr in | rain 24hr in | rain mn in | humidity % | barometer mb |
| 20260506200707 | 85 | 68 | 0.9 | 7.8 | 0.00 | 0.00 | 0.00 | 73 | 1008.9 |
| 20260506200157 | 85 | 90 | 0.0 | 6.1 | 0.00 | 0.00 | 0.00 | 73 | 1008.9 |
| 20260506195648 | 85 | 90 | 0.0 | 7.0 | 0.00 | 0.00 | 0.00 | 73 | 1009.0 |
| 20260506194628 | 85 | 45 | 0.0 | 9.6 | 0.00 | 0.00 | 0.00 | 72 | 1009.0 |
| 20260506194117 | 85 | 90 | 2.6 | 9.6 | 0.00 | 0.00 | 0.00 | 73 | 1008.8 |
| 20260506193608 | 85 | 113 | 3.5 | 9.6 | 0.00 | 0.00 | 0.00 | 72 | 1008.9 |
| 20260506193057 | 86 | 68 | 0.0 | 9.6 | 0.00 | 0.00 | 0.00 | 72 | 1008.8 |
| 20260506192546 | 86 | 45 | 1.7 | 9.6 | 0.00 | 0.00 | 0.00 | 71 | 1009.1 |
| 20260506192037 | 86 | 68 | 0.0 | 9.6 | 0.00 | 0.00 | 0.00 | 71 | 1009.1 |
| 20260506191025 | 86 | 68 | 3.5 | 11.3 | 0.00 | 0.00 | 0.00 | 70 | 1008.9 |
| 20260506185956 | 87 | 68 | 6.1 | 9.6 | 0.00 | 0.00 | 0.00 | 69 | 1009.0 |
| 20260506185445 | 87 | 45 | 4.3 | 9.6 | 0.00 | 0.00 | 0.00 | 69 | 1009.0 |
| 20260506184935 | 87 | 45 | 1.7 | 9.6 | 0.00 | 0.00 | 0.00 | 68 | 1008.8 |
| 20260506184426 | 87 | 68 | 0.0 | 9.6 | 0.00 | 0.00 | 0.00 | 68 | 1009.1 |
| 20260506183915 | 86 | 90 | 1.7 | 9.6 | 0.00 | 0.00 | 0.00 | 68 | 1009.2 |
| 20260506183406 | 87 | 68 | 1.7 | 9.6 | 0.00 | 0.00 | 0.00 | 68 | 1009.2 |
| 20260506182855 | 87 | 23 | 2.6 | 9.6 | 0.00 | 0.00 | 0.00 | 68 | 1009.5 |
| 20260506182346 | 87 | 113 | 3.5 | 9.6 | 0.00 | 0.00 | 0.00 | 68 | 1009.6 |
| 20260506181835 | 87 | 90 | 0.9 | 11.3 | 0.00 | 0.00 | 0.00 | 68 | 1009.5 |
| 20260506181325 | 88 | 68 | 0.9 | 11.3 | 0.00 | 0.00 | 0.00 | 66 | 1009.5 |
| 20260506180815 | 88 | 90 | 0.9 | 9.6 | 0.00 | 0.00 | 0.00 | 66 | 1009.5 |
| 20260506180305 | 88 | 68 | 1.7 | 11.3 | 0.00 | 0.00 | 0.00 | 67 | 1009.7 |
| 20260506175755 | 88 | 90 | 4.3 | 11.3 | 0.00 | 0.00 | 0.00 | 67 | 1009.8 |
| 20260506175244 | 87 | 68 | 4.3 | 11.3 | 0.00 | 0.00 | 0.00 | 67 | 1010.0 |
| 20260506174734 | 87 | 68 | 3.5 | 11.3 | 0.00 | 0.00 | 0.00 | 68 | 1010.1 |
| 20260506174224 | 88 | 23 | 0.9 | 11.3 | 0.00 | 0.00 | 0.00 | 67 | 1010.4 |
| 20260506173714 | 88 | 0 | 1.7 | 9.6 | 0.00 | 0.00 | 0.00 | 65 | 1010.4 |
| 20260506173204 | 88 | 23 | 3.5 | 9.6 | 0.00 | 0.00 | 0.00 | 66 | 1010.4 |
| 20260506172654 | 87 | 45 | 1.7 | 11.3 | 0.00 | 0.00 | 0.00 | 67 | 1010.1 |
| 20260506172144 | 88 | 45 | 4.3 | 11.3 | 0.00 | 0.00 | 0.00 | 67 | 1010.4 |
| 20260506170103 | 88 | 23 | 5.2 | 14.8 | 0.00 | 0.00 | 0.00 | 66 | 1010.5 |
| 20260506165553 | 88 | 45 | 6.1 | 13.9 | 0.00 | 0.00 | 0.00 | 65 | 1010.8 |
| 20260506165043 | 88 | 23 | 7.0 | 13.9 | 0.00 | 0.00 | 0.00 | 66 | 1011.1 |
| 20260506164533 | 87 | 0 | 3.5 | 13.9 | 0.00 | 0.00 | 0.00 | 67 | 1010.9 |
| 20260506163513 | 87 | 23 | 7.0 | 13.0 | 0.00 | 0.00 | 0.00 | 67 | 1011.5 |
| 20260506162452 | 87 | 113 | 7.8 | 13.9 | 0.00 | 0.00 | 0.00 | 68 | 1011.5 |
| 20260506161942 | 88 | 23 | 3.5 | 13.0 | 0.00 | 0.00 | 0.00 | 67 | 1011.4 |
| 20260506161433 | 87 | 45 | 4.3 | 13.0 | 0.00 | 0.00 | 0.00 | 67 | 1011.3 |
| 20260506160922 | 87 | 23 | 2.6 | 11.3 | 0.00 | 0.00 | 0.00 | 69 | 1011.7 |
| 20260506160411 | 87 | 45 | 0.9 | 9.6 | 0.00 | 0.00 | 0.00 | 70 | 1011.6 |
| 20260506155901 | 87 | 68 | 0.0 | 9.6 | 0.00 | 0.00 | 0.00 | 70 | 1011.6 |
| 20260506155352 | 86 | 68 | 4.3 | 9.6 | 0.00 | 0.00 | 0.00 | 70 | 1011.7 |
| 20260506154841 | 86 | 45 | 4.3 | 7.8 | 0.00 | 0.00 | 0.00 | 70 | 1011.8 |
| 20260506154332 | 87 | 45 | 3.5 | 11.3 | 0.00 | 0.00 | 0.00 | 70 | 1012.0 |
| 20260506153821 | 86 | 45 | 1.7 | 11.3 | 0.00 | 0.00 | 0.00 | 70 | 1012.3 |
| 20260506153311 | 87 | 0 | 1.7 | 11.3 | 0.00 | 0.00 | 0.00 | 69 | 1012.4 |
| 20260506152801 | 86 | 45 | 3.5 | 11.3 | 0.00 | 0.00 | 0.00 | 70 | 1012.4 |
| 20260506152251 | 86 | 315 | 0.9 | 9.6 | 0.00 | 0.00 | 0.00 | 70 | 1012.5 |
| 20260506151740 | 85 | 45 | 1.7 | 9.6 | 0.00 | 0.00 | 0.00 | 69 | 1012.6 |
| 20260506151231 | 86 | 68 | 0.0 | 9.6 | 0.00 | 0.00 | 0.00 | 70 | 1012.8 |
| 20260506150721 | 85 | 0 | 2.6 | 9.6 | 0.00 | 0.00 | 0.00 | 70 | 1012.7 |
| 20260506150211 | 85 | 68 | 4.3 | 9.6 | 0.00 | 0.00 | 0.00 | 71 | 1013.0 |
| 20260506145701 | 85 | 0 | 4.3 | 9.6 | 0.00 | 0.00 | 0.00 | 70 | 1013.0 |
| 20260506145150 | 85 | 45 | 0.0 | 9.6 | 0.00 | 0.00 | 0.00 | 70 | 1013.0 |
| 20260506144640 | 84 | 338 | 0.9 | 9.6 | 0.00 | 0.00 | 0.00 | 72 | 1013.2 |
| 20260506144130 | 84 | 68 | 5.2 | 11.3 | 0.00 | 0.00 | 0.00 | 72 | 1013.4 |
| 20260506143110 | 83 | 23 | 1.7 | 11.3 | 0.00 | 0.00 | 0.00 | 73 | 1013.5 |
| 20260506142600 | 83 | 23 | 3.5 | 7.8 | 0.00 | 0.00 | 0.00 | 73 | 1013.7 |
| 20260506142050 | 82 | 45 | 0.0 | 9.6 | 0.00 | 0.00 | 0.00 | 74 | 1013.9 |
| 20260506141540 | 82 | 338 | 2.6 | 11.3 | 0.00 | 0.00 | 0.00 | 75 | 1014.0 |
| 20260506141029 | 81 | 68 | 5.2 | 11.3 | 0.00 | 0.00 | 0.00 | 75 | 1013.9 |
| 20260506140519 | 81 | 68 | 4.3 | 11.3 | 0.00 | 0.00 | 0.00 | 74 | 1014.0 |
| 20260506140024 | 81 | 23 | 3.5 | 11.3 | 0.00 | 0.00 | 0.00 | 75 | 1014.0 |
| 20260506134439 | 81 | 23 | 4.3 | 12.2 | 0.00 | 0.00 | 0.00 | 75 | 1014.2 |
| 20260506133929 | 81 | 90 | 5.2 | 12.2 | 0.00 | 0.00 | 0.00 | 75 | 1014.1 |
| 20260506132909 | 81 | 45 | 3.5 | 9.6 | 0.00 | 0.00 | 0.00 | 76 | 1014.2 |
| 20260506131848 | 80 | 68 | 3.5 | 12.2 | 0.00 | 0.00 | 0.00 | 76 | 1014.3 |
| 20260506131338 | 80 | 23 | 2.6 | 11.3 | 0.00 | 0.00 | 0.00 | 75 | 1014.4 |
| 20260506130828 | 80 | 68 | 1.7 | 11.3 | 0.00 | 0.00 | 0.00 | 76 | 1014.3 |
| 20260506125808 | 80 | 0 | 4.3 | 11.3 | 0.00 | 0.00 | 0.00 | 77 | 1014.2 |
| 20260506125258 | 80 | 90 | 0.9 | 7.0 | 0.00 | 0.00 | 0.00 | 77 | 1014.0 |
| 20260506124748 | 79 | 68 | 0.0 | 6.1 | 0.00 | 0.00 | 0.00 | 79 | 1014.2 |
| 20260506124237 | 78 | 45 | 0.0 | 7.0 | 0.00 | 0.00 | 0.00 | 80 | 1014.3 |
| 20260506123727 | 77 | 68 | 1.7 | 7.0 | 0.00 | 0.00 | 0.00 | 80 | 1014.1 |
| 20260506123218 | 77 | 90 | 0.0 | 5.2 | 0.00 | 0.00 | 0.00 | 81 | 1014.2 |
| 20260506122707 | 77 | 68 | 0.0 | 9.6 | 0.00 | 0.00 | 0.00 | 82 | 1014.2 |
| 20260506121647 | 76 | 90 | 0.0 | 1.7 | 0.00 | 0.00 | 0.00 | 83 | 1014.0 |
| 20260506121136 | 76 | 45 | 0.0 | 6.1 | 0.00 | 0.00 | 0.00 | 83 | 1014.1 |
| 20260506120626 | 76 | 23 | 0.0 | 7.8 | 0.00 | 0.00 | 0.00 | 83 | 1014.0 |
| 20260506115606 | 76 | 68 | 0.0 | 7.0 | 0.00 | 0.00 | 0.00 | 84 | 1014.1 |
| 20260506115056 | 76 | 90 | 0.0 | 7.0 | 0.00 | 0.00 | 0.00 | 84 | 1014.1 |
| 20260506114546 | 75 | 68 | 0.0 | 7.0 | 0.00 | 0.00 | 0.00 | 85 | 1014.1 |
| 20260506114036 | 75 | 68 | 0.0 | 6.1 | 0.00 | 0.00 | 0.00 | 85 | 1014.0 |
| 20260506113526 | 75 | 90 | 0.0 | 6.1 | 0.00 | 0.00 | 0.00 | 85 | 1014.0 |
| 20260506113025 | 75 | 68 | 0.9 | 6.1 | 0.00 | 0.00 | 0.00 | 86 | 1013.9 |
| 20260506112505 | 75 | 45 | 3.5 | 6.1 | 0.00 | 0.00 | 0.00 | 86 | 1014.3 |
| 20260506111955 | 75 | 68 | 0.0 | 5.2 | 0.00 | 0.00 | 0.00 | 87 | 1014.2 |
| 20260506111446 | 75 | 90 | 0.0 | 1.7 | 0.00 | 0.00 | 0.00 | 87 | 1014.0 |
| 20260506110935 | 75 | 68 | 0.0 | 1.7 | 0.00 | 0.00 | 0.00 | 87 | 1013.8 |
| 20260506110425 | 74 | 68 | 0.0 | 1.7 | 0.00 | 0.00 | 0.00 | 87 | 1014.0 |
| 20260506105405 | 74 | 90 | 0.0 | 0.0 | 0.00 | 0.00 | 0.00 | 88 | 1013.7 |
| 20260506104855 | 74 | 90 | 0.0 | 0.0 | 0.00 | 0.00 | 0.00 | 88 | 1013.9 |
| 20260506103834 | 74 | 90 | 0.0 | 1.7 | 0.00 | 0.00 | 0.00 | 87 | 1013.5 |
| 20260506103324 | 74 | 68 | 0.0 | 1.7 | 0.00 | 0.00 | 0.00 | 87 | 1013.6 |
| 20260506102814 | 74 | 90 | 0.0 | 1.7 | 0.00 | 0.00 | 0.00 | 87 | 1013.6 |
| 20260506102305 | 74 | 90 | 0.0 | 3.5 | 0.00 | 0.00 | 0.00 | 87 | 1013.5 |
| 20260506101757 | 74 | 90 | 0.0 | 3.5 | 0.00 | 0.00 | 0.00 | 87 | 1013.4 |
| 20260506101244 | 74 | 113 | 0.0 | 1.7 | 0.00 | 0.00 | 0.00 | 87 | 1013.4 |
| 20260506100734 | 75 | 90 | 0.0 | 1.7 | 0.00 | 0.00 | 0.00 | 87 | 1013.5 |
| 20260506100224 | 74 | 68 | 0.0 | 1.7 | 0.00 | 0.00 | 0.00 | 87 | 1013.4 |
| 20260506095713 | 74 | 90 | 0.0 | 1.7 | 0.00 | 0.00 | 0.00 | 87 | 1013.3 |
| 20260506095204 | 74 | 90 | 0.0 | 1.7 | 0.00 | 0.00 | 0.00 | 87 | 1013.2 |
| 20260506094654 | 74 | 68 | 0.0 | 1.7 | 0.00 | 0.00 | 0.00 | 87 | 1013.1 |
| 20260506094143 | 74 | 68 | 0.0 | 1.7 | 0.00 | 0.00 | 0.00 | 87 | 1013.1 |
| 20260506093633 | 74 | 68 | 0.0 | 1.7 | 0.00 | 0.00 | 0.00 | 87 | 1013.1 |
| 20260506093123 | 74 | 68 | 0.0 | 1.7 | 0.00 | 0.00 | 0.00 | 87 | 1012.9 |
| 20260506092613 | 74 | 90 | 0.0 | 1.7 | 0.00 | 0.00 | 0.00 | 87 | 1012.9 |
| 20260506091553 | 75 | 90 | 0.0 | 1.7 | 0.00 | 0.00 | 0.00 | 87 | 1012.9 |
| 20260506091043 | 75 | 68 | 0.0 | 1.7 | 0.00 | 0.00 | 0.00 | 86 | 1013.2 |
| 20260506090533 | 75 | 45 | 0.0 | 1.7 | 0.00 | 0.00 | 0.00 | 86 | 1013.1 |
| 20260506085513 | 75 | 90 | 0.0 | 1.7 | 0.00 | 0.00 | 0.00 | 87 | 1012.9 |
| 20260506085009 | 75 | 90 | 0.0 | 1.7 | 0.00 | 0.00 | 0.00 | 87 | 1013.0 |
| 20260506084452 | 75 | 68 | 0.0 | 1.7 | 0.00 | 0.00 | 0.00 | 86 | 1012.7 |
| 20260506083942 | 75 | 68 | 0.0 | 1.7 | 0.00 | 0.00 | 0.00 | 86 | 1012.8 |
| 20260506083432 | 75 | 68 | 0.0 | 1.7 | 0.00 | 0.00 | 0.00 | 86 | 1013.1 |
| 20260506082921 | 75 | 90 | 0.0 | 1.7 | 0.00 | 0.00 | 0.00 | 86 | 1013.0 |
| 20260506082411 | 75 | 90 | 0.0 | 1.7 | 0.00 | 0.00 | 0.00 | 86 | 1013.1 |
| 20260506081352 | 75 | 68 | 0.0 | 1.7 | 0.00 | 0.00 | 0.00 | 86 | 1012.7 |
| 20260506080331 | 76 | 68 | 0.0 | 1.7 | 0.00 | 0.00 | 0.00 | 85 | 1012.9 |
| 20260506073230 | 76 | 68 | 0.0 | 1.7 | 0.00 | 0.00 | 0.00 | 84 | 1013.1 |
| 20260506072720 | 76 | 68 | 0.0 | 1.7 | 0.00 | 0.00 | 0.00 | 84 | 1013.1 |
| 20260506071701 | 76 | 68 | 0.0 | 1.7 | 0.00 | 0.00 | 0.00 | 84 | 1013.1 |
| 20260506070640 | 76 | 68 | 0.0 | 1.7 | 0.00 | 0.00 | 0.00 | 83 | 1012.9 |
| 20260506070130 | 76 | 68 | 0.0 | 1.7 | 0.00 | 0.00 | 0.00 | 83 | 1012.9 |
| 20260506061459 | 76 | 68 | 0.0 | 1.7 | 0.00 | 0.00 | 0.00 | 83 | 1013.1 |
| 20260506060949 | 76 | 68 | 0.0 | 1.7 | 0.00 | 0.00 | 0.00 | 83 | 1013.1 |
| 20260506060438 | 76 | 68 | 0.0 | 1.7 | 0.00 | 0.00 | 0.00 | 83 | 1013.2 |
| 20260506051259 | 77 | 90 | 0.0 | 1.7 | 0.00 | 0.00 | 0.00 | 82 | 1013.6 |
| 20260506050744 | 77 | 68 | 0.0 | 0.0 | 0.00 | 0.00 | 0.00 | 82 | 1013.3 |
| 20260506050147 | 77 | 90 | 0.0 | 0.0 | 0.00 | 0.00 | 0.00 | 83 | 1013.5 |
| 20260506045037 | 77 | 90 | 0.0 | 1.7 | 0.00 | 0.00 | 0.00 | 83 | 1013.5 |
| 20260506044535 | 77 | 68 | 0.0 | 1.7 | 0.00 | 0.00 | 0.00 | 83 | 1013.4 |
| 20260506044023 | 77 | 90 | 0.0 | 1.7 | 0.00 | 0.00 | 0.00 | 84 | 1013.2 |
| 20260506042957 | 77 | 90 | 0.0 | 1.7 | 0.00 | 0.00 | 0.00 | 85 | 1013.8 |
| 20260506041937 | 77 | 68 | 0.0 | 1.7 | 0.00 | 0.00 | 0.00 | 84 | 1013.6 |
| 20260506041425 | 78 | 68 | 0.0 | 1.7 | 0.00 | 0.00 | 0.00 | 83 | 1013.7 |
| 20260506040916 | 78 | 113 | 0.0 | 1.7 | 0.00 | 0.00 | 0.00 | 83 | 1013.9 |
| 20260506035856 | 78 | 68 | 0.0 | 1.7 | 0.00 | 0.00 | 0.00 | 83 | 1013.9 |
| 20260506035345 | 78 | 90 | 0.0 | 1.7 | 0.00 | 0.00 | 0.00 | 83 | 1013.8 |
| 20260506034835 | 78 | 68 | 0.0 | 1.7 | 0.00 | 0.00 | 0.00 | 83 | 1014.1 |
| 20260506034326 | 78 | 45 | 0.0 | 1.7 | 0.00 | 0.00 | 0.00 | 83 | 1014.2 |
| 20260506033815 | 77 | 68 | 0.0 | 1.7 | 0.00 | 0.00 | 0.00 | 84 | 1014.1 |
| 20260506033305 | 77 | 68 | 0.0 | 1.7 | 0.00 | 0.00 | 0.00 | 85 | 1014.4 |
| 20260506032755 | 77 | 68 | 0.0 | 1.7 | 0.00 | 0.00 | 0.00 | 86 | 1014.0 |
| 20260506032245 | 77 | 90 | 0.0 | 1.7 | 0.00 | 0.00 | 0.00 | 86 | 1014.2 |
| 20260506030715 | 77 | 90 | 0.0 | 1.7 | 0.00 | 0.00 | 0.00 | 86 | 1014.4 |
| 20260506030205 | 77 | 90 | 0.0 | 0.0 | 0.00 | 0.00 | 0.00 | 85 | 1014.3 |
| 20260506025145 | 78 | 90 | 0.0 | 0.0 | 0.00 | 0.00 | 0.00 | 84 | 1014.4 |
| 20260506024635 | 78 | 90 | 0.0 | 0.0 | 0.00 | 0.00 | 0.00 | 84 | 1014.3 |
| 20260506024125 | 78 | 90 | 0.0 | 0.0 | 0.00 | 0.00 | 0.00 | 84 | 1014.4 |
| 20260506023613 | 78 | 90 | 0.0 | 1.7 | 0.00 | 0.00 | 0.00 | 84 | 1014.4 |
| 20260506023104 | 78 | 90 | 0.0 | 1.7 | 0.00 | 0.00 | 0.00 | 83 | 1014.6 |
| 20260506022044 | 78 | 90 | 0.0 | 0.0 | 0.00 | 0.00 | 0.00 | 84 | 1014.6 |
| 20260506021540 | 78 | 68 | 0.0 | 0.0 | 0.00 | 0.00 | 0.00 | 84 | 1014.4 |
| 20260506021026 | 78 | 45 | 0.0 | 1.7 | 0.00 | 0.00 | 0.00 | 84 | 1014.5 |
| 20260506020002 | 78 | 68 | 0.0 | 0.0 | 0.00 | 0.00 | 0.00 | 84 | 1014.4 |
| 20260506015453 | 78 | 90 | 0.0 | 0.0 | 0.00 | 0.00 | 0.00 | 84 | 1014.3 |
| 20260506014942 | 78 | 45 | 0.0 | 0.0 | 0.00 | 0.00 | 0.00 | 84 | 1014.4 |
| 20260506013923 | 78 | 68 | 0.0 | 1.7 | 0.00 | 0.00 | 0.00 | 84 | 1014.5 |
| 20260506013413 | 78 | 68 | 0.0 | 1.7 | 0.00 | 0.00 | 0.00 | 84 | 1014.5 |
| 20260506012903 | 78 | 45 | 0.0 | 1.7 | 0.00 | 0.00 | 0.00 | 84 | 1014.4 |
| 20260506012352 | 78 | 68 | 0.0 | 1.7 | 0.00 | 0.00 | 0.00 | 84 | 1014.4 |
| 20260506011332 | 78 | 113 | 0.0 | 1.7 | 0.00 | 0.00 | 0.00 | 85 | 1014.3 |
| 20260506010822 | 78 | 68 | 0.0 | 1.7 | 0.00 | 0.00 | 0.00 | 84 | 1014.7 |
| 20260506010312 | 78 | 90 | 0.0 | 1.7 | 0.00 | 0.00 | 0.00 | 85 | 1014.3 |
| 20260506005254 | 78 | 68 | 0.0 | 0.0 | 0.00 | 0.00 | 0.00 | 84 | 1014.4 |
| 20260506004742 | 78 | 90 | 0.0 | 0.0 | 0.00 | 0.00 | 0.00 | 84 | 1014.3 |
| 20260506004231 | 78 | 68 | 0.0 | 1.7 | 0.00 | 0.00 | 0.00 | 84 | 1014.2 |
| 20260506003721 | 78 | 90 | 0.0 | 1.7 | 0.00 | 0.00 | 0.00 | 83 | 1014.4 |
| 20260506003211 | 78 | 90 | 0.0 | 0.0 | 0.00 | 0.00 | 0.00 | 83 | 1014.5 |
| 20260506002701 | 78 | 68 | 0.0 | 0.0 | 0.00 | 0.00 | 0.00 | 83 | 1014.3 |
| 20260506001641 | 78 | 90 | 0.0 | 0.0 | 0.00 | 0.00 | 0.00 | 84 | 1014.1 |
| 20260506001131 | 78 | 68 | 0.0 | 0.0 | 0.00 | 0.00 | 0.00 | 84 | 1014.2 |
| 20260506000621 | 78 | 68 | 0.0 | 0.0 | 0.00 | 0.00 | 0.00 | 84 | 1014.1 |
| 20260506000110 | 78 | 68 | 0.0 | 0.0 | 0.00 | 0.00 | 0.00 | 84 | 1014.1 |
| 20260505235601 | 78 | 90 | 0.0 | 0.0 | 0.00 | 0.00 | 0.00 | 84 | 1014.1 |
| 20260505233521 | 78 | 90 | 0.0 | 0.0 | 0.00 | 0.00 | 0.00 | 83 | 1014.0 |
| 20260505233025 | 79 | 90 | 0.0 | 0.0 | 0.00 | 0.00 | 0.00 | 82 | 1014.2 |
| 20260505232500 | 79 | 68 | 0.0 | 0.0 | 0.00 | 0.00 | 0.00 | 82 | 1014.0 |
| 20260505231950 | 79 | 90 | 0.0 | 0.0 | 0.00 | 0.00 | 0.00 | 82 | 1013.6 |
| 20260505230930 | 79 | 68 | 0.0 | 0.0 | 0.00 | 0.00 | 0.00 | 81 | 1013.7 |
| 20260505230420 | 79 | 23 | 0.0 | 0.0 | 0.00 | 0.00 | 0.00 | 81 | 1013.7 |
| 20260505225359 | 79 | 90 | 0.0 | 0.0 | 0.00 | 0.00 | 0.00 | 81 | 1013.8 |
| 20260505224849 | 80 | 68 | 0.0 | 0.0 | 0.00 | 0.00 | 0.00 | 80 | 1013.5 |
| 20260505224339 | 80 | 68 | 0.0 | 0.0 | 0.00 | 0.00 | 0.00 | 80 | 1013.5 |
| 20260505223828 | 79 | 90 | 0.0 | 0.0 | 0.00 | 0.00 | 0.00 | 80 | 1013.5 |
| 20260505223319 | 79 | 68 | 0.0 | 0.0 | 0.00 | 0.00 | 0.00 | 81 | 1013.5 |
| 20260505222808 | 79 | 90 | 0.0 | 0.0 | 0.00 | 0.00 | 0.00 | 81 | 1013.4 |
| 20260505222258 | 79 | 90 | 0.0 | 0.0 | 0.00 | 0.00 | 0.00 | 81 | 1013.3 |
| 20260505221753 | 79 | 90 | 0.0 | 0.0 | 0.00 | 0.00 | 0.00 | 80 | 1013.0 |
| 20260505221239 | 80 | 68 | 0.0 | 0.0 | 0.00 | 0.00 | 0.00 | 80 | 1013.2 |
| 20260505220728 | 80 | 90 | 0.0 | 0.0 | 0.00 | 0.00 | 0.00 | 80 | 1013.3 |
| 20260505215708 | 80 | 113 | 0.0 | 0.0 | 0.00 | 0.00 | 0.00 | 79 | 1012.8 |
| 20260505215158 | 80 | 90 | 0.0 | 0.0 | 0.00 | 0.00 | 0.00 | 78 | 1013.0 |
| 20260505214650 | 81 | 90 | 0.0 | 0.0 | 0.00 | 0.00 | 0.00 | 77 | 1012.9 |
| 20260505214137 | 82 | 90 | 0.0 | 0.0 | 0.00 | 0.00 | 0.00 | 76 | 1012.9 |
| 20260505213628 | 82 | 90 | 0.0 | 1.7 | 0.00 | 0.00 | 0.00 | 75 | 1013.0 |
| 20260505213117 | 82 | 90 | 0.0 | 1.7 | 0.00 | 0.00 | 0.00 | 74 | 1012.9 |
| 20260505212057 | 83 | 90 | 0.0 | 1.7 | 0.00 | 0.00 | 0.00 | 73 | 1012.7 |
| 20260505211552 | 83 | 68 | 0.0 | 1.7 | 0.00 | 0.00 | 0.00 | 72 | 1012.9 |
| 20260505211036 | 84 | 68 | 0.0 | 1.7 | 0.00 | 0.00 | 0.00 | 71 | 1012.9 |
| 20260505210526 | 84 | 68 | 0.0 | 1.7 | 0.00 | 0.00 | 0.00 | 70 | 1012.8 |
| 20260505210023 | 85 | 68 | 0.0 | 1.7 | 0.00 | 0.00 | 0.00 | 69 | 1013.0 |
| 20260505205508 | 85 | 90 | 0.0 | 1.7 | 0.00 | 0.00 | 0.00 | 69 | 1012.8 |
| 20260505204447 | 86 | 68 | 0.0 | 3.5 | 0.00 | 0.00 | 0.00 | 67 | 1012.8 |
| 20260505203936 | 86 | 90 | 0.0 | 5.2 | 0.00 | 0.00 | 0.00 | 67 | 1012.7 |
| 20260505203425 | 86 | 68 | 0.0 | 7.0 | 0.00 | 0.00 | 0.00 | 66 | 1012.4 |
| 20260505202916 | 87 | 90 | 0.0 | 7.0 | 0.00 | 0.00 | 0.00 | 67 | 1012.8 |
| 20260505202406 | 87 | 68 | 0.0 | 1.7 | 0.00 | 0.00 | 0.00 | 66 | 1012.5 |
| 20260505201855 | 87 | 45 | 0.0 | 1.7 | 0.00 | 0.00 | 0.00 | 66 | 1012.6 |